Frederick, OK

4:03 PM CDT on June 23, 2017 (GMT -0500)
Frederick Municipal

Weather History for KFDR - February, 2013

Change the Weather History Date:

Wednesday, February 27, 2013

  Actual Average (KLTS) Record (KLTS)
Temperature  
Mean Temperature 41 °F -  
Max Temperature 50 °F 55 °F 78 °F (2017)
Min Temperature 32 °F 31 °F 15 °F (2014)
Degree Days  
Heating Degree Days 24    
Moisture  
Dew Point 27 °F    
Average Humidity 63    
Maximum Humidity 79    
Minimum Humidity 36    
Precipitation  
Precipitation 0.00 in - - ()
Sea Level Pressure  
Sea Level Pressure 30.13 in    
Wind  
Wind Speed 14 mph (NNW)    
Max Wind Speed 30 mph    
Max Gust Speed 37 mph    
Visibility 10 miles    
Events      
Averages and records for this station are not official NWS values.
T = Trace of Precipitation, MM = Missing Value Source: NWS Daily Summary

Daily Weather History Graph

Daily Weather History Graph

Search for Another Location

Airport or City:

Trip Planner

Search our weather history database for the weather conditions in past years. The results will help you decide how hot, cold, wet, or windy it might be!

Date:

Astronomy

Feb. 27, 2013 Rise Set
Actual Time 7:06 AM CST 6:30 PM CST
Civil Twilight 6:41 AM CST 6:55 PM CST
Nautical Twilight 6:12 AM CST 7:25 PM CST
Astronomical Twilight 5:43 AM CST 7:54 PM CST
Moon 8:44 PM CST (2/27) 7:50 AM CST (2/27)
Length of Visible Light 12h 14m
Length of Day
11h 23m
Waning Gibbous, 96% of the Moon is Illuminated
Feb 27
Waning Gibbous
Mar 4
Last Quarter
Mar 11
New
Mar 19
First Quarter
Mar 27
Full

Hourly Weather History & Observations

Time (CST) Temp. Windchill Dew Point Humidity Pressure Visibility Wind Dir Wind Speed Gust Speed Precip Events Conditions
12:53 AM 37.0 °F 28.5 °F 28.0 °F 70% 29.91 in 10.0 mi North 13.8 mph - N/A   Mostly Cloudy
1:53 AM 36.0 °F 29.6 °F 27.0 °F 70% 29.94 in 10.0 mi North 8.1 mph - N/A   Overcast
2:53 AM 36.0 °F 27.1 °F 27.0 °F 70% 29.97 in 10.0 mi NNW 13.8 mph - N/A   Mostly Cloudy
3:53 AM 36.0 °F 28.0 °F 27.0 °F 70% 29.98 in 10.0 mi NNW 11.5 mph - N/A   Scattered Clouds
4:53 AM 33.1 °F 23.9 °F 26.1 °F 75% 30.01 in 10.0 mi NNW 12.7 mph - N/A   Clear
5:53 AM 32.0 °F 23.6 °F 26.1 °F 79% 30.04 in 10.0 mi NNW 10.4 mph - N/A   Clear
6:53 AM 32.0 °F 24.2 °F 25.0 °F 75% 30.07 in 10.0 mi NW 9.2 mph - N/A   Clear
7:53 AM 33.1 °F 24.9 °F 25.0 °F 72% 30.11 in 10.0 mi NW 10.4 mph - N/A   Clear
9:53 AM 39.9 °F 31.4 °F 26.1 °F 58% 30.15 in 10.0 mi NNW 16.1 mph - N/A   Clear
10:53 AM 44.1 °F 36.5 °F 28.0 °F 53% 30.16 in 10.0 mi NW 17.3 mph 24.2 mph N/A   Clear
11:53 AM 48.0 °F - 25.0 °F 41% 30.17 in 10.0 mi NW 20.7 mph 28.8 mph N/A   Clear
12:53 PM 50.0 °F - 24.1 °F 36% 30.16 in 10.0 mi NNW 26.5 mph 32.2 mph N/A   Clear
1:53 PM 50.0 °F - 26.1 °F 39% 30.15 in 10.0 mi NNW 28.8 mph 34.5 mph N/A   Clear
2:53 PM 48.9 °F - 28.9 °F 46% 30.17 in 10.0 mi NNW 29.9 mph 36.8 mph N/A   Clear
3:53 PM 48.9 °F - 30.0 °F 48% 30.17 in 10.0 mi NNW 27.6 mph 34.5 mph N/A   Partly Cloudy
4:53 PM 48.9 °F - 32.0 °F 52% 30.18 in 10.0 mi North 17.3 mph 25.3 mph N/A   Clear
5:53 PM 46.9 °F - 30.9 °F 54% 30.18 in 10.0 mi North 18.4 mph - N/A   Clear
6:53 PM 42.1 °F 35.2 °F 30.0 °F 62% 30.21 in 10.0 mi North 12.7 mph - N/A   Clear
7:53 PM 39.0 °F 32.8 °F 28.9 °F 67% 30.23 in 10.0 mi North 9.2 mph - N/A   Clear
8:53 PM 35.1 °F 30.1 °F 28.9 °F 78% 30.24 in 10.0 mi North 5.8 mph - N/A   Clear
9:53 PM 35.1 °F 30.1 °F 28.0 °F 76% 30.25 in 10.0 mi NNW 5.8 mph - N/A   Clear
10:53 PM 36.0 °F 29.0 °F 28.0 °F 73% 30.25 in 10.0 mi NNW 9.2 mph - N/A   Clear
11:53 PM 32.0 °F 27.5 °F 26.1 °F 79% 30.26 in 10.0 mi WNW 4.6 mph - N/A   Clear